TimeCDT,TemperatureF,Dew PointF,Humidity,Sea Level PressureIn,VisibilityMPH,Wind Direction,Wind SpeedMPH,Gust SpeedMPH,PrecipitationIn,Events,Conditions,WindDirDegrees,DateUTC
12:15 AM,55.4,42.8,63,30.14,10.0,NNW,6.9,-,N/A,,Scattered Clouds,340,2013-05-02 05:15:00
12:35 AM,53.6,42.8,67,30.14,10.0,North,9.2,16.1,N/A,,Mostly Cloudy,350,2013-05-02 05:35:00
12:55 AM,53.6,41.0,62,30.13,10.0,NNW,9.2,-,N/A,,Clear,340,2013-05-02 05:55:00
1:15 AM,53.6,41.0,62,30.13,10.0,North,10.4,-,N/A,,Scattered Clouds,350,2013-05-02 06:15:00
1:35 AM,51.8,41.0,67,30.13,10.0,North,12.7,18.4,N/A,,Scattered Clouds,350,2013-05-02 06:35:00
1:55 AM,51.8,41.0,67,30.13,10.0,North,9.2,-,N/A,,Mostly Cloudy,350,2013-05-02 06:55:00
2:15 AM,51.8,39.2,62,30.13,10.0,NNW,6.9,-,N/A,,Scattered Clouds,340,2013-05-02 07:15:00
2:35 AM,51.8,39.2,62,30.13,10.0,NNW,10.4,-,N/A,,Scattered Clouds,340,2013-05-02 07:35:00
2:55 AM,51.8,39.2,62,30.14,10.0,NNW,6.9,-,N/A,,Clear,330,2013-05-02 07:55:00
3:15 AM,51.8,39.2,62,30.14,10.0,NNW,9.2,-,N/A,,Scattered Clouds,340,2013-05-02 08:15:00
3:35 AM,50.0,39.2,66,30.14,10.0,NNW,10.4,-,N/A,,Scattered Clouds,340,2013-05-02 08:35:00
3:55 AM,50.0,39.2,66,30.16,10.0,NW,8.1,16.1,N/A,,Scattered Clouds,320,2013-05-02 08:55:00
4:15 AM,48.2,37.4,66,30.15,10.0,NNW,9.2,-,N/A,,Scattered Clouds,340,2013-05-02 09:15:00
4:35 AM,48.2,37.4,66,30.16,10.0,NNW,11.5,-,N/A,,Clear,340,2013-05-02 09:35:00
4:55 AM,48.2,37.4,66,30.16,10.0,North,10.4,-,N/A,,Scattered Clouds,350,2013-05-02 09:55:00
5:15 AM,48.2,37.4,66,30.17,10.0,NNW,11.5,17.3,N/A,,Scattered Clouds,340,2013-05-02 10:15:00
5:35 AM,48.2,37.4,66,30.18,10.0,NNW,10.4,21.9,N/A,,Scattered Clouds,340,2013-05-02 10:35:00
5:55 AM,48.2,37.4,66,30.19,10.0,NNW,11.5,18.4,N/A,,Clear,340,2013-05-02 10:55:00
6:15 AM,48.2,35.6,62,30.19,10.0,NNW,12.7,19.6,N/A,,Mostly Cloudy,340,2013-05-02 11:15:00
6:35 AM,48.2,35.6,62,30.19,10.0,North,15.0,24.2,N/A,,Overcast,350,2013-05-02 11:35:00
6:55 AM,48.2,35.6,62,30.22,10.0,North,12.7,18.4,N/A,,Overcast,350,2013-05-02 11:55:00
7:15 AM,48.2,35.6,62,30.22,10.0,NNW,10.4,17.3,N/A,,Scattered Clouds,340,2013-05-02 12:15:00
7:35 AM,48.2,35.6,62,30.23,10.0,NNW,9.2,18.4,N/A,,Mostly Cloudy,340,2013-05-02 12:35:00
7:55 AM,48.2,37.4,66,30.23,10.0,North,13.8,20.7,N/A,,Overcast,350,2013-05-02 12:55:00
8:15 AM,50.0,37.4,62,30.23,10.0,NNW,12.7,17.3,N/A,,Overcast,330,2013-05-02 13:15:00
8:35 AM,48.2,37.4,66,30.24,10.0,North,8.1,-,N/A,,Overcast,360,2013-05-02 13:35:00
8:55 AM,50.0,37.4,62,30.23,10.0,NNW,9.2,17.3,N/A,,Overcast,340,2013-05-02 13:55:00
9:15 AM,50.0,37.4,62,30.24,10.0,NNW,12.7,18.4,N/A,,Overcast,340,2013-05-02 14:15:00
9:35 AM,51.8,37.4,58,30.23,10.0,NNW,11.5,18.4,N/A,,Overcast,340,2013-05-02 14:35:00
9:55 AM,51.8,37.4,58,30.23,10.0,North,16.1,-,N/A,,Overcast,360,2013-05-02 14:55:00
10:15 AM,51.8,37.4,58,30.23,10.0,North,11.5,18.4,N/A,,Overcast,360,2013-05-02 15:15:00
10:35 AM,51.8,37.4,58,30.23,10.0,North,11.5,-,N/A,,Overcast,350,2013-05-02 15:35:00
10:55 AM,53.6,37.4,54,30.23,10.0,NNW,11.5,19.6,N/A,,Overcast,330,2013-05-02 15:55:00
11:15 AM,53.6,37.4,54,30.24,10.0,North,12.7,20.7,N/A,,Overcast,350,2013-05-02 16:15:00
11:35 AM,53.6,37.4,54,30.24,10.0,North,10.4,17.3,N/A,,Overcast,350,2013-05-02 16:35:00
11:55 AM,53.6,37.4,54,30.25,10.0,North,11.5,18.4,N/A,,Overcast,350,2013-05-02 16:55:00
12:15 PM,51.8,37.4,58,30.25,10.0,NNW,10.4,-,N/A,,Overcast,340,2013-05-02 17:15:00
12:35 PM,53.6,37.4,54,30.25,10.0,North,12.7,20.7,N/A,,Overcast,350,2013-05-02 17:35:00
12:55 PM,51.8,37.4,58,30.24,10.0,North,13.8,19.6,N/A,,Overcast,350,2013-05-02 17:55:00
1:15 PM,51.8,37.4,58,30.25,10.0,NNW,10.4,23.0,N/A,,Overcast,330,2013-05-02 18:15:00
1:35 PM,51.8,37.4,58,30.24,10.0,NNW,17.3,23.0,N/A,,Overcast,330,2013-05-02 18:35:00
1:55 PM,50.0,37.4,62,30.24,10.0,NNW,16.1,23.0,N/A,,Overcast,330,2013-05-02 18:55:00
2:15 PM,50.0,37.4,62,30.24,10.0,NNW,13.8,19.6,N/A,,Overcast,340,2013-05-02 19:15:00
2:35 PM,50.0,37.4,62,30.24,10.0,NNW,12.7,24.2,N/A,,Overcast,340,2013-05-02 19:35:00
2:55 PM,48.2,37.4,66,30.24,10.0,North,12.7,21.9,N/A,,Overcast,350,2013-05-02 19:55:00
3:15 PM,48.2,35.6,62,30.24,10.0,NNW,11.5,23.0,N/A,,Overcast,330,2013-05-02 20:15:00
3:35 PM,46.4,35.6,66,30.24,10.0,NW,13.8,19.6,N/A,,Overcast,320,2013-05-02 20:35:00
3:55 PM,46.4,35.6,66,30.23,10.0,NNW,13.8,21.9,N/A,,Overcast,330,2013-05-02 20:55:00
4:15 PM,44.6,35.6,71,30.24,7.0,NNW,11.5,20.7,N/A,,Overcast,330,2013-05-02 21:15:00
4:35 PM,44.6,35.6,71,30.24,7.0,NNW,15.0,19.6,N/A,Rain,Light Rain,330,2013-05-02 21:35:00
4:55 PM,44.6,35.6,71,30.23,7.0,NNW,15.0,18.4,N/A,,Light Drizzle,340,2013-05-02 21:55:00
5:15 PM,42.8,35.6,76,30.21,7.0,North,17.3,20.7,N/A,,Drizzle,350,2013-05-02 22:15:00
5:35 PM,42.8,35.6,76,30.22,7.0,NNW,11.5,18.4,0.01,Rain,Rain,340,2013-05-02 22:35:00
5:55 PM,42.8,33.8,70,30.22,7.0,NNW,10.4,-,0.01,Rain,Light Rain,330,2013-05-02 22:55:00
6:15 PM,42.8,33.8,70,30.22,7.0,NNW,13.8,19.6,0.03,Rain,Light Rain,340,2013-05-02 23:15:00
6:35 PM,42.8,33.8,70,30.23,7.0,NNW,9.2,-,0.04,Rain,Rain,340,2013-05-02 23:35:00
6:55 PM,41.0,33.8,76,30.22,10.0,NNW,8.1,-,0.06,Rain,Rain,340,2013-05-02 23:55:00
7:15 PM,41.0,33.8,76,30.22,10.0,NNW,11.5,19.6,N/A,Rain,Rain,340,2013-05-03 00:15:00
7:35 PM,41.0,33.8,76,30.22,10.0,NNW,13.8,19.6,N/A,,Drizzle,340,2013-05-03 00:35:00
7:55 PM,41.0,33.8,76,30.23,10.0,NW,9.2,16.1,N/A,,Overcast,320,2013-05-03 00:55:00
8:15 PM,39.2,33.8,81,30.23,10.0,NNW,9.2,20.7,N/A,,Overcast,330,2013-05-03 01:15:00
8:35 PM,39.2,33.8,81,30.23,10.0,NNW,10.4,17.3,N/A,,Overcast,340,2013-05-03 01:35:00
8:55 PM,39.2,33.8,81,30.24,10.0,NNW,9.2,18.4,N/A,,Overcast,340,2013-05-03 01:55:00
9:15 PM,39.2,33.8,81,30.24,5.0,NNW,10.4,-,N/A,,Haze,330,2013-05-03 02:15:00
9:35 PM,39.2,33.8,81,30.23,4.0,North,10.4,16.1,N/A,,Drizzle,350,2013-05-03 02:35:00
9:55 PM,39.2,32.0,75,30.22,7.0,North,11.5,17.3,0.03,Rain,Rain,350,2013-05-03 02:55:00
10:15 PM,39.2,32.0,75,30.22,3.0,NNW,11.5,18.4,0.02,Rain,Rain,340,2013-05-03 03:15:00
10:35 PM,39.2,32.0,75,30.21,3.0,North,10.4,19.6,0.05,Rain,Light Rain,350,2013-05-03 03:35:00
10:55 PM,39.2,32.0,75,30.20,7.0,North,11.5,18.4,0.09,Rain,Light Rain,350,2013-05-03 03:55:00
11:15 PM,39.2,32.0,75,30.20,7.0,NNW,8.1,18.4,N/A,,Drizzle,340,2013-05-03 04:15:00
11:35 PM,39.2,32.0,75,30.19,5.0,NNW,12.7,18.4,0.01,Rain,Light Rain,330,2013-05-03 04:35:00
11:55 PM,39.2,32.0,75,30.18,7.0,NNW,10.4,16.1,0.03,Rain,Light Rain,340,2013-05-03 04:55:00